{"data":{"norad_id":63653,"epoch":"2026-09-20T22:17:03.503328Z","epoch_age_seconds":115812,"freshness":"FRESH","line1":"1 63653U 25083V   26263.92851277  .00013087  00000+0  48403-3 0  9991","line2":"2 63653  43.0019 342.8131 0002695 268.9266  91.1277 15.27593551 79955","mean_motion":15.27593551,"eccentricity":0.0002695,"inclination_deg":43.0019,"raan_deg":342.8131,"arg_perigee_deg":268.9266,"mean_anomaly_deg":91.1277,"bstar":0.00048403,"rev_number":7995,"period_min":94.26591249075,"perigee_km":481.15944105308,"apogee_km":484.85759848824,"semimajor_km":6861.1455197707,"source":"CELESTRAK","updated_at":"2026-09-21T09:00:35.054856Z"}}